| time (UTC) | temp F | wind direction | speed MPH | gust MPH | rain 1hr in | rain 24hr in | rain mn in | humidity % | barometer mb |
| 20260509103018 | 47 | 41 | 0.0 | 0.0 | 0.00 | 0.00 | 0.00 | 95 | 1019.2 |
| 20260509101529 | 47 | 360 | 0.0 | 1.0 | 0.00 | 0.00 | 0.00 | 95 | 1019.1 |
| 20260509100058 | 47 | 360 | 0.0 | 0.0 | 0.00 | 0.00 | 0.00 | 95 | 1019.3 |
| 20260509094524 | 47 | 360 | 0.0 | 0.0 | 0.00 | 0.00 | 0.00 | 95 | 1019.5 |
| 20260509093049 | 47 | 360 | 0.0 | 0.0 | 0.00 | 0.00 | 0.00 | 95 | 1019.3 |
| 20260509091512 | 47 | 360 | 0.0 | 0.0 | 0.00 | 0.00 | 0.00 | 94 | 1019.6 |
| 20260509090057 | 47 | 360 | 0.0 | 0.0 | 0.00 | 0.00 | 0.00 | 94 | 1019.8 |
| 20260509084553 | 48 | 360 | 0.0 | 0.0 | 0.00 | 0.00 | 0.00 | 94 | 1020.0 |
| 20260509083038 | 48 | 55 | 0.0 | 0.0 | 0.00 | 0.00 | 0.00 | 94 | 1020.1 |
| 20260509081529 | 48 | 360 | 0.0 | 0.0 | 0.00 | 0.00 | 0.00 | 94 | 1020.3 |
| 20260509080108 | 48 | 360 | 0.0 | 0.0 | 0.00 | 0.00 | 0.00 | 93 | 1020.4 |
| 20260509074529 | 49 | 360 | 0.0 | 0.0 | 0.00 | 0.00 | 0.00 | 93 | 1020.4 |
| 20260509073048 | 49 | 360 | 0.0 | 0.0 | 0.00 | 0.00 | 0.00 | 93 | 1020.5 |
| 20260509071601 | 49 | 360 | 0.0 | 0.0 | 0.00 | 0.00 | 0.00 | 93 | 1020.6 |
| 20260509070022 | 49 | 360 | 0.0 | 0.0 | 0.00 | 0.00 | 0.00 | 93 | 1020.7 |
| 20260509064545 | 49 | 360 | 0.0 | 0.0 | 0.00 | 0.00 | 0.00 | 92 | 1020.8 |
| 20260509063107 | 49 | 360 | 0.0 | 0.0 | 0.00 | 0.00 | 0.00 | 92 | 1021.1 |
| 20260509061520 | 50 | 360 | 0.0 | 0.0 | 0.00 | 0.00 | 0.00 | 92 | 1021.2 |
| 20260509060028 | 50 | 360 | 0.0 | 0.0 | 0.00 | 0.00 | 0.00 | 92 | 1021.5 |
| 20260509054556 | 50 | 360 | 0.0 | 0.0 | 0.00 | 0.00 | 0.00 | 91 | 1021.5 |
| 20260509053032 | 50 | 34 | 0.0 | 0.0 | 0.00 | 0.00 | 0.00 | 91 | 1021.4 |
| 20260509051548 | 51 | 360 | 0.0 | 0.0 | 0.00 | 0.00 | 0.00 | 91 | 1021.4 |
| 20260509050032 | 51 | 360 | 0.0 | 0.0 | 0.00 | 0.00 | 0.00 | 90 | 1021.6 |
| 20260509044538 | 52 | 360 | 0.0 | 0.0 | 0.00 | 0.00 | 0.00 | 90 | 1021.7 |
| 20260509043003 | 52 | 360 | 0.0 | 0.0 | 0.00 | 0.00 | 0.00 | 90 | 1021.7 |
| 20260509041535 | 52 | 360 | 0.0 | 0.0 | 0.00 | 0.00 | 0.00 | 89 | 1021.8 |
| 20260509034523 | 53 | 360 | 0.0 | 10.0 | 0.00 | 0.00 | 0.00 | 88 | 1021.4 |
| 20260509033106 | 53 | 360 | 1.0 | 10.0 | 0.00 | 0.00 | 0.00 | 88 | 1021.5 |
| 20260509031514 | 54 | 360 | 3.0 | 11.0 | 0.00 | 0.00 | 0.00 | 87 | 1021.4 |
| 20260509030042 | 54 | 360 | 0.0 | 9.0 | 0.00 | 0.00 | 0.00 | 85 | 1021.3 |
| 20260509024507 | 54 | 360 | 3.0 | 12.0 | 0.00 | 0.00 | 0.00 | 84 | 1021.2 |
| 20260509023036 | 55 | 360 | 0.0 | 9.0 | 0.00 | 0.00 | 0.00 | 83 | 1021.2 |
| 20260509021602 | 55 | 11 | 3.0 | 11.0 | 0.00 | 0.00 | 0.00 | 83 | 1021.2 |
| 20260509020024 | 56 | 360 | 6.0 | 12.0 | 0.00 | 0.00 | 0.00 | 82 | 1021.3 |
| 20260509014536 | 57 | 360 | 7.0 | 12.0 | 0.00 | 0.00 | 0.00 | 81 | 1021.2 |
| 20260509013111 | 57 | 360 | 6.0 | 11.0 | 0.00 | 0.00 | 0.00 | 80 | 1021.4 |
| 20260509011526 | 57 | 360 | 4.0 | 11.0 | 0.00 | 0.00 | 0.00 | 80 | 1021.6 |
| 20260509010057 | 57 | 360 | 8.0 | 14.0 | 0.00 | 0.00 | 0.00 | 79 | 1021.5 |
| 20260509004504 | 58 | 360 | 6.0 | 12.0 | 0.00 | 0.00 | 0.00 | 78 | 1021.5 |
| 20260509003031 | 59 | 44 | 7.0 | 12.0 | 0.00 | 0.00 | 0.00 | 77 | 1021.5 |
| 20260509001558 | 58 | 360 | 8.0 | 12.0 | 0.00 | 0.00 | 0.00 | 77 | 1021.6 |
| 20260509000036 | 59 | 346 | 6.0 | 12.0 | 0.00 | 0.00 | 0.00 | 77 | 1021.7 |
| 20260508234533 | 59 | 360 | 4.0 | 14.0 | 0.00 | 0.00 | 0.00 | 77 | 1021.9 |
| 20260508233103 | 59 | 360 | 6.0 | 15.0 | 0.00 | 0.00 | 0.00 | 75 | 1021.9 |
| 20260508231523 | 60 | 360 | 6.0 | 13.0 | 0.00 | 0.00 | 0.00 | 74 | 1022.0 |
| 20260508230052 | 59 | 360 | 6.0 | 12.0 | 0.00 | 0.00 | 0.00 | 75 | 1021.9 |
| 20260508224532 | 60 | 360 | 6.0 | 14.0 | 0.00 | 0.00 | 0.00 | 75 | 1021.9 |
| 20260508223041 | 59 | 310 | 6.0 | 11.0 | 0.00 | 0.00 | 0.00 | 75 | 1022.0 |
| 20260508221502 | 59 | 360 | 6.0 | 11.0 | 0.00 | 0.00 | 0.00 | 75 | 1022.1 |
| 20260508220033 | 59 | 360 | 5.0 | 11.0 | 0.00 | 0.00 | 0.00 | 77 | 1022.0 |
| 20260508214546 | 60 | 360 | 7.0 | 14.0 | 0.00 | 0.00 | 0.00 | 74 | 1022.0 |
| 20260508213007 | 60 | 360 | 6.0 | 10.0 | 0.00 | 0.00 | 0.00 | 73 | 1022.1 |
| 20260508211532 | 60 | 360 | 4.0 | 11.0 | 0.00 | 0.00 | 0.00 | 74 | 1022.0 |
| 20260508210059 | 60 | 360 | 6.0 | 13.0 | 0.00 | 0.00 | 0.00 | 73 | 1022.0 |
| 20260508204523 | 60 | 360 | 4.0 | 12.0 | 0.00 | 0.00 | 0.00 | 75 | 1022.2 |
| 20260508203048 | 60 | 360 | 4.0 | 11.0 | 0.00 | 0.00 | 0.00 | 76 | 1022.0 |
| 20260508201508 | 60 | 360 | 3.0 | 10.0 | 0.00 | 0.00 | 0.00 | 74 | 1022.1 |
| 20260508200044 | 60 | 360 | 3.0 | 13.0 | 0.00 | 0.00 | 0.00 | 75 | 1022.1 |
| 20260508194548 | 60 | 360 | 4.0 | 11.0 | 0.00 | 0.00 | 0.00 | 75 | 1022.1 |
| 20260508193011 | 60 | 360 | 4.0 | 11.0 | 0.00 | 0.00 | 0.00 | 76 | 1022.0 |
| 20260508191520 | 60 | 360 | 4.0 | 9.0 | 0.00 | 0.00 | 0.00 | 77 | 1022.1 |
| 20260508190050 | 60 | 360 | 3.0 | 5.0 | 0.00 | 0.00 | 0.00 | 76 | 1022.0 |
| 20260508184524 | 58 | 360 | 1.0 | 9.0 | 0.00 | 0.00 | 0.00 | 78 | 1022.3 |
| 20260508183059 | 57 | 360 | 2.0 | 5.0 | 0.00 | 0.00 | 0.00 | 80 | 1022.5 |
| 20260508181507 | 56 | 149 | 0.0 | 6.0 | 0.00 | 0.00 | 0.00 | 79 | 1022.6 |
| 20260508180034 | 55 | 360 | 0.0 | 4.0 | 0.00 | 0.00 | 0.00 | 81 | 1022.6 |
| 20260508174601 | 55 | 360 | 1.0 | 4.0 | 0.00 | 0.00 | 0.00 | 81 | 1022.7 |
| 20260508173027 | 54 | 192 | 0.0 | 3.0 | 0.00 | 0.00 | 0.00 | 81 | 1022.5 |
| 20260508171555 | 53 | 208 | 0.0 | 4.0 | 0.00 | 0.00 | 0.00 | 81 | 1022.4 |
| 20260508170019 | 53 | 207 | 0.0 | 0.0 | 0.00 | 0.00 | 0.00 | 81 | 1022.3 |
| 20260508164546 | 53 | 360 | 0.0 | 0.0 | 0.00 | 0.00 | 0.00 | 81 | 1022.0 |
| 20260508163010 | 53 | 360 | 0.0 | 0.0 | 0.00 | 0.00 | 0.00 | 81 | 1022.2 |
| 20260508161541 | 53 | 167 | 0.0 | 0.0 | 0.00 | 0.00 | 0.00 | 81 | 1021.9 |
| 20260508160003 | 53 | 178 | 0.0 | 0.0 | 0.00 | 0.00 | 0.00 | 81 | 1021.8 |
| 20260508154530 | 53 | 219 | 0.0 | 0.0 | 0.00 | 0.00 | 0.00 | 82 | 1021.8 |
| 20260508153057 | 52 | 199 | 0.0 | 0.0 | 0.00 | 0.00 | 0.00 | 83 | 1021.5 |
| 20260508151521 | 52 | 184 | 0.0 | 0.0 | 0.00 | 0.00 | 0.00 | 83 | 1021.4 |
| 20260508150116 | 52 | 165 | 0.0 | 0.0 | 0.00 | 0.00 | 0.00 | 83 | 1021.3 |
| 20260508144533 | 52 | 132 | 0.0 | 0.0 | 0.00 | 0.00 | 0.00 | 84 | 1020.8 |
| 20260508143048 | 51 | 148 | 0.0 | 0.0 | 0.00 | 0.00 | 0.00 | 85 | 1021.0 |
| 20260508141510 | 51 | 163 | 0.0 | 0.0 | 0.00 | 0.00 | 0.00 | 86 | 1021.0 |
| 20260508140042 | 51 | 155 | 0.0 | 0.0 | 0.00 | 0.00 | 0.00 | 87 | 1020.8 |
| 20260508134606 | 51 | 162 | 0.0 | 0.0 | 0.00 | 0.00 | 0.00 | 87 | 1020.9 |
| 20260508133026 | 51 | 155 | 0.0 | 0.0 | 0.00 | 0.00 | 0.00 | 86 | 1020.6 |
| 20260508131558 | 51 | 159 | 0.0 | 0.0 | 0.00 | 0.00 | 0.00 | 86 | 1020.6 |
| 20260508130023 | 51 | 156 | 0.0 | 0.0 | 0.00 | 0.00 | 0.00 | 85 | 1020.6 |
| 20260508124529 | 51 | 156 | 0.0 | 0.0 | 0.00 | 0.00 | 0.00 | 85 | 1020.5 |
| 20260508123056 | 51 | 202 | 0.0 | 0.0 | 0.00 | 0.00 | 0.00 | 85 | 1020.7 |
| 20260508121522 | 51 | 193 | 0.0 | 0.0 | 0.00 | 0.00 | 0.00 | 85 | 1020.8 |
| 20260508120044 | 51 | 360 | 0.0 | 0.0 | 0.00 | 0.00 | 0.00 | 85 | 1020.6 |
| 20260508114524 | 51 | 211 | 0.0 | 0.0 | 0.00 | 0.00 | 0.00 | 85 | 1020.7 |
| 20260508113054 | 51 | 213 | 0.0 | 0.0 | 0.00 | 0.00 | 0.00 | 86 | 1020.5 |
| 20260508111547 | 51 | 213 | 0.0 | 0.0 | 0.00 | 0.00 | 0.00 | 86 | 1020.4 |
| 20260508110010 | 51 | 227 | 0.0 | 0.0 | 0.00 | 0.00 | 0.00 | 86 | 1020.1 |
| 20260508104548 | 51 | 210 | 0.0 | 0.0 | 0.00 | 0.00 | 0.00 | 87 | 1020.0 |